Wind_Speed
38 39 40 41 43 44 41 35 32 30 31 32 34 35 35 35 34 32 31 28 27 26 26 25 23 22 20 19 17 16 14 13 12 11 10 9 8 7 6 5 4 4 5 5 5 6 7 8 9
42 42 44 45 46 45 40 35 33 31 33 35 36 37 37 36 35 33 31 30 29 28 28 27 25 24 23 21 19 18 16 15 13 12 12 10 9 8 6 5 5 5 5 5 5 6 7 9 10
45 46 47 48 48 44 39 35 34 35 36 37 38 39 38 37 35 34 32 31 30 30 29 28 27 26 24 22 20 19 18 16 14 13 13 11 10 9 7 6 6 5 5 5 6 6 8 9 10
47 49 50 51 48 42 39 37 38 38 39 39 40 40 39 37 36 35 33 32 31 31 30 29 28 27 25 23 22 20 19 17 15 14 13 12 11 10 8 7 7 6 5 5 6 7 7 8 10
49 51 53 53 47 42 40 40 40 41 41 40 41 41 39 38 38 37 35 34 32 32 31 31 29 28 27 25 23 21 20 18 16 15 14 13 12 11 9 9 8 7 6 6 6 7 8 9 10
51 53 55 53 47 43 42 41 42 43 43 42 42 41 40 39 39 38 37 35 34 33 33 32 31 29 28 26 24 23 21 19 17 16 15 14 13 12 11 10 9 8 6 6 7 8 9 10 11
52 54 55 52 48 45 43 43 44 44 45 44 44 43 41 41 40 39 38 37 36 35 34 33 32 31 29 28 26 24 22 20 18 17 16 15 14 13 11 10 9 8 7 7 8 9 10 11 12
52 54 55 53 50 46 44 45 45 46 46 46 46 44 42 41 41 40 39 38 37 36 35 34 33 32 31 29 28 26 23 21 20 19 18 16 15 13 12 11 10 9 9 9 9 10 11 12 13
51 54 54 51 50 46 45 46 46 47 48 47 46 45 43 43 42 41 40 39 37 36 35 34 33 32 31 30 29 27 24 23 21 20 19 17 16 14 13 12 11 10 10 10 10 11 12 13 13
51 53 51 49 48 47 46 47 47 49 49 48 47 46 45 44 43 42 41 39 38 36 36 35 34 33 32 31 30 28 26 24 23 22 20 19 17 16 14 13 12 11 11 11 12 12 13 13 14
50 50 48 49 48 48 48 48 49 50 49 48 47 47 46 44 44 43 41 40 38 38 37 36 34 33 32 32 30 28 27 26 25 23 22 20 19 17 16 14 13 13 13 12 13 13 14 14 15
48 47 48 48 48 49 50 49 50 50 49 49 49 48 48 46 44 44 42 40 39 39 38 37 35 34 33 32 31 29 28 27 26 25 23 22 20 19 17 16 14 14 14 13 14 14 14 15 16
45 45 45 47 49 49 51 50 51 50 50 51 50 49 48 47 46 45 44 42 40 40 39 38 37 35 34 33 32 30 29 29 28 27 25 23 22 20 18 17 16 15 15 14 15 15 16 16 17
43 44 44 45 48 51 51 51 52 51 50 52 51 50 49 48 47 46 45 43 42 41 40 39 38 36 35 34 33 32 31 30 29 28 27 25 23 21 20 18 17 16 16 16 16 16 16 17 18
42 44 43 43 46 49 53 54 51 50 52 53 52 51 51 50 48 47 46 44 43 42 41 40 39 38 36 35 34 33 32 31 30 29 28 26 24 23 21 20 19 18 17 17 17 17 18 18 19
41 44 44 42 43 48 53 54 49 50 53 53 53 52 52 52 49 48 47 45 44 43 42 41 40 39 38 36 35 34 33 32 31 30 29 27 25 24 23 21 20 19 19 18 18 18 18 19 20
40 42 43 42 43 47 52 53 50 51 53 54 54 53 53 52 51 49 48 46 45 44 44 42 41 40 39 38 36 35 34 33 32 31 30 28 27 25 24 23 22 21 20 20 20 20 20 20 21
39 40 42 42 43 45 50 52 51 52 53 54 54 54 54 53 52 49 48 48 47 46 45 44 42 41 40 39 37 36 34 33 32 31 31 29 28 27 25 24 23 23 22 21 21 21 21 21 22
36 39 41 41 41 45 48 51 51 53 54 54 55 55 55 54 53 52 50 50 49 47 46 45 43 42 40 39 38 36 35 34 33 32 32 30 29 28 27 26 25 24 24 23 23 22 22 23 23
33 36 39 41 41 43 47 50 51 53 54 53 55 56 56 56 55 53 52 51 50 49 47 46 45 43 41 40 39 38 37 35 35 34 33 31 30 29 28 27 26 26 25 25 24 24 24 24 25
31 34 37 40 40 42 46 49 50 52 53 53 55 56 56 57 56 55 53 52 51 49 47 46 45 44 42 41 40 39 38 36 35 34 33 32 31 30 29 28 27 27 26 26 26 25 26 26 27
31 31 34 37 40 42 45 49 49 50 53 53 54 55 56 57 57 56 54 52 51 50 48 47 46 45 44 42 41 39 37 36 34 34 34 33 32 31 30 29 29 28 28 27 27 27 27 28 28
29 30 32 35 38 41 44 48 49 50 51 52 53 54 56 56 57 56 55 53 51 51 49 48 47 46 45 44 42 40 39 37 36 36 35 34 33 32 31 30 30 29 29 29 28 28 29 29 29
28 29 31 33 36 40 39 45 47 48 48 49 51 52 55 56 58 57 55 55 53 52 51 49 48 47 46 45 43 41 39 39 38 37 36 35 34 33 32 32 31 31 30 30 30 30 30 30 30
28 29 30 32 35 37 37 42 45 44 46 47 49 52 54 56 58 58 57 56 54 53 52 51 49 48 47 46 44 42 40 40 39 38 37 36 35 34 33 33 32 32 31 31 31 31 31 31 31
28 28 29 31 33 33 35 39 42 42 43 45 48 51 53 55 58 58 58 56 55 54 53 52 50 48 48 47 45 43 42 41 40 39 38 37 36 35 35 34 33 33 33 33 33 32 32 32 33
29 29 29 31 34 35 35 36 38 41 42 44 47 49 51 53 56 58 58 57 56 55 54 52 51 49 48 48 47 45 44 43 41 40 39 38 37 36 36 35 35 34 34 34 34 34 34 33 34
30 30 31 32 33 35 37 35 35 38 42 44 45 48 50 51 54 57 58 58 56 56 55 53 51 50 49 49 48 47 45 44 43 42 41 39 38 37 37 37 36 36 36 35 35 35 35 35 35
29 31 32 34 35 35 37 35 33 35 39 43 44 46 49 51 53 55 56 57 57 56 56 55 52 51 50 50 49 48 47 45 45 44 42 41 39 39 38 37 37 37 37 37 36 36 36 36 36
30 32 33 35 36 37 38 35 34 34 37 41 44 46 48 50 52 54 56 55 55 56 56 56 54 52 51 50 50 49 48 47 46 45 43 42 41 40 39 39 39 38 38 37 37 37 37 37 37
Wind_Direction
259 257 256 253 251 250 249 248 246 244 242 238 236 236 236 236 235 235 234 231 231 231 231 231 230 229 228 228 229 231 232 233 235 239 244 249 251 250 254 259 268 282 298 310 313 318 322 325 328
259 257 255 254 252 251 250 249 246 243 240 237 237 236 236 235 235 234 233 231 229 229 229 229 229 229 228 228 229 230 232 234 238 241 244 245 245 245 247 252 262 276 291 302 309 315 321 323 327
258 256 254 254 253 252 252 249 245 240 239 237 236 236 235 235 234 233 232 231 229 228 228 228 228 227 227 228 229 229 231 234 238 240 241 239 239 240 242 247 256 270 283 295 304 313 318 323 327
256 254 253 253 253 252 251 247 242 238 238 237 235 235 235 234 234 233 231 229 228 227 227 226 226 226 226 226 227 228 230 233 236 238 235 234 235 235 239 243 251 262 275 288 298 308 316 322 326
255 253 252 253 252 250 249 246 241 238 237 236 235 234 233 233 232 231 230 228 227 226 225 225 225 225 225 225 225 226 228 231 234 234 231 231 231 233 238 242 246 256 269 282 294 302 311 319 322
254 253 253 253 252 248 246 244 240 238 236 235 235 233 231 231 231 230 229 227 225 224 224 224 224 224 224 224 223 225 227 229 231 230 229 228 229 233 238 242 243 251 264 279 291 299 306 312 317
253 253 253 252 250 246 245 242 239 236 234 233 233 231 229 229 229 228 227 226 224 224 223 223 224 223 223 223 222 224 226 228 229 227 227 226 229 233 237 240 241 248 261 277 288 296 302 307 312
253 252 252 250 248 246 243 241 238 235 232 230 230 229 227 228 227 227 226 225 224 223 222 223 223 222 222 221 222 223 226 227 226 225 225 226 229 231 235 238 241 249 262 274 284 293 299 304 309
253 251 251 249 248 245 241 239 236 233 231 229 228 227 226 226 225 225 225 223 223 222 222 222 222 221 221 221 221 223 224 225 225 224 223 224 227 230 235 238 242 250 263 273 282 291 297 302 307
251 252 251 249 246 242 239 237 233 231 229 227 226 226 225 224 224 224 223 222 222 221 221 221 221 221 220 220 220 222 223 223 223 222 222 224 227 231 235 239 244 253 264 273 281 289 295 300 306
250 251 250 246 243 239 236 233 231 229 226 224 224 224 224 223 223 223 222 221 220 220 220 220 220 220 219 219 220 221 222 222 222 222 223 225 228 232 236 241 246 255 264 272 280 288 293 299 304
250 249 247 244 241 237 234 232 230 228 224 222 222 222 222 221 221 222 221 220 219 218 219 220 219 219 219 219 220 221 221 221 221 222 224 226 230 233 237 241 248 257 265 272 280 287 292 296 302
248 248 246 243 239 235 231 230 228 226 223 221 221 221 220 219 219 220 220 219 218 218 218 219 219 219 219 219 220 221 221 221 222 223 224 227 231 234 238 242 249 258 265 273 281 287 291 295 300
246 247 245 242 239 234 231 227 226 223 222 222 221 220 219 219 218 219 219 219 217 217 218 219 219 219 219 219 220 221 221 221 222 224 225 228 231 234 238 243 250 257 265 273 282 286 290 293 299
246 246 244 241 237 234 231 227 225 222 222 221 220 219 219 218 218 218 218 218 218 217 218 219 218 218 219 220 221 221 221 222 223 224 226 228 232 235 239 245 251 257 265 272 280 286 289 292 297
246 245 242 238 236 233 232 227 223 223 222 221 219 218 218 217 216 217 217 217 217 217 217 218 218 218 218 219 220 221 222 223 223 225 226 229 232 236 241 246 251 257 265 272 279 285 290 292 296
244 244 241 237 235 233 231 227 222 221 222 220 219 217 217 217 216 216 217 217 217 217 217 217 217 218 218 219 220 221 222 223 224 225 227 230 233 237 242 247 251 257 265 272 278 284 288 292 295
244 244 242 238 235 234 231 227 223 221 221 220 219 217 217 216 215 216 217 217 217 217 217 217 217 218 218 219 219 220 222 224 225 226 228 231 234 238 243 248 251 257 264 271 277 282 287 291 294
246 245 243 239 236 236 231 228 223 221 220 219 219 218 216 216 215 215 216 216 217 217 217 218 218 218 219 219 219 221 222 224 225 227 229 232 235 239 244 248 252 257 264 270 275 280 285 289 293
246 245 241 238 235 236 233 228 223 220 219 219 218 218 217 215 215 215 215 215 217 218 217 218 218 219 219 219 220 221 223 224 226 228 230 233 236 240 245 249 252 258 264 269 274 278 283 287 291
246 243 240 238 236 234 235 229 223 220 220 219 218 218 217 216 215 215 215 215 216 217 218 219 219 219 219 219 221 222 223 225 227 229 231 234 237 241 245 249 253 258 264 268 273 277 281 286 290
246 242 239 238 238 235 234 233 222 220 221 219 218 218 217 216 215 215 216 215 215 216 218 220 220 219 219 220 221 223 224 226 227 230 232 235 238 242 246 250 254 258 263 268 272 276 280 284 288
248 243 240 240 239 237 234 236 224 221 220 220 220 219 218 217 216 216 216 216 216 217 218 219 220 220 220 221 221 222 224 225 227 230 233 236 239 242 246 250 254 258 263 267 271 275 279 282 286
248 245 243 242 240 238 234 236 228 222 221 221 221 220 218 217 216 216 216 216 217 217 218 219 220 221 221 221 221 222 224 226 229 231 234 237 241 244 246 250 254 258 262 266 270 274 278 281 284
244 245 246 244 242 240 235 237 230 223 221 220 221 220 219 219 217 217 217 218 218 218 218 220 221 221 222 222 222 222 225 227 229 231 234 237 241 244 247 250 253 257 262 266 269 273 276 280 283
242 243 246 247 246 242 237 237 230 225 221 221 221 221 220 220 219 219 218 218 219 219 219 220 221 222 222 223 222 223 225 228 230 232 235 238 241 244 247 250 253 257 262 265 269 272 275 279 283
245 244 246 247 246 245 241 236 230 227 223 221 221 221 221 221 220 219 219 219 219 220 220 222 222 224 224 224 224 225 226 228 231 233 236 239 241 244 247 250 254 258 262 265 267 271 274 278 282
248 247 247 245 247 248 243 238 232 228 227 224 222 222 222 221 221 220 220 219 220 220 220 222 223 224 224 225 225 226 228 229 231 234 237 239 242 244 247 250 254 258 261 264 267 270 273 277 281
246 246 247 246 247 248 246 239 234 233 230 227 225 224 223 223 222 221 221 220 220 220 221 221 222 224 225 226 226 227 229 230 232 235 237 240 242 245 247 250 254 257 260 264 267 270 273 277 281
248 247 247 247 247 247 247 240 237 236 234 231 228 225 224 224 224 224 223 222 222 221 221 222 223 224 225 227 227 228 229 231 233 235 237 240 242 245 248 250 253 257 260 263 266 270 273 276 280
Height
5791 5792 5793 5795 5796 5798 5802 5809 5814 5817 5818 5819 5820 5822 5825 5828 5832 5838 5840 5842 5844 5847 5849 5851 5853 5855 5857 5859 5861 5862 5864 5865 5866 5867 5868 5868 5869 5870 5870 5871 5871 5872 5872 5872 5872 5872 5872 5871 5871
5782 5783 5784 5785 5786 5789 5797 5804 5808 5810 5811 5812 5814 5816 5819 5822 5826 5830 5834 5837 5839 5842 5844 5847 5849 5851 5853 5855 5857 5859 5861 5862 5864 5865 5866 5866 5867 5868 5869 5869 5870 5870 5871 5871 5871 5871 5871 5870 5869
5772 5773 5774 5775 5777 5783 5791 5798 5801 5802 5802 5805 5807 5809 5812 5817 5821 5825 5828 5831 5834 5837 5840 5842 5845 5847 5850 5852 5854 5856 5858 5859 5861 5862 5863 5864 5865 5866 5867 5868 5868 5869 5869 5869 5869 5869 5869 5868 5868
5761 5761 5762 5764 5769 5778 5784 5788 5790 5793 5795 5797 5800 5803 5807 5812 5815 5819 5822 5826 5829 5832 5835 5838 5840 5843 5846 5848 5851 5853 5855 5856 5858 5859 5860 5862 5863 5864 5865 5866 5867 5867 5868 5868 5868 5868 5867 5867 5866
5748 5749 5750 5753 5761 5770 5775 5778 5780 5783 5786 5790 5792 5796 5800 5805 5808 5812 5816 5820 5823 5827 5830 5833 5836 5839 5842 5844 5847 5849 5851 5853 5855 5857 5858 5859 5861 5862 5863 5864 5865 5865 5866 5866 5866 5866 5865 5865 5864
5735 5736 5738 5742 5752 5760 5764 5767 5770 5774 5777 5781 5784 5788 5793 5798 5801 5805 5809 5814 5817 5821 5824 5828 5831 5834 5837 5840 5843 5846 5848 5850 5852 5854 5855 5857 5858 5859 5861 5861 5863 5863 5864 5864 5864 5864 5863 5863 5862
5723 5723 5726 5733 5740 5747 5754 5756 5760 5764 5768 5772 5775 5780 5786 5790 5794 5798 5803 5807 5811 5815 5819 5822 5826 5830 5833 5836 5839 5842 5844 5846 5848 5850 5852 5854 5855 5857 5858 5859 5860 5861 5862 5862 5862 5861 5861 5860 5860
5709 5711 5713 5720 5727 5736 5742 5744 5749 5752 5758 5762 5765 5772 5779 5783 5787 5791 5796 5800 5805 5809 5813 5817 5821 5825 5828 5831 5834 5838 5840 5843 5845 5847 5849 5851 5853 5854 5856 5857 5858 5859 5859 5859 5859 5859 5858 5858 5857
5694 5697 5700 5709 5716 5724 5729 5732 5737 5741 5746 5752 5757 5764 5770 5774 5778 5784 5789 5794 5799 5803 5808 5812 5816 5819 5823 5826 5830 5833 5836 5839 5841 5844 5846 5848 5850 5851 5853 5854 5855 5856 5856 5856 5856 5856 5856 5855 5854
5680 5682 5691 5700 5704 5709 5715 5719 5724 5729 5735 5742 5749 5755 5760 5765 5771 5776 5782 5787 5793 5798 5802 5806 5810 5814 5818 5822 5825 5829 5832 5835 5837 5840 5842 5844 5846 5848 5850 5851 5852 5853 5853 5853 5854 5853 5853 5852 5851
5666 5672 5680 5685 5690 5695 5700 5706 5711 5716 5724 5733 5740 5746 5751 5757 5763 5769 5775 5781 5786 5791 5795 5800 5804 5808 5812 5816 5820 5824 5827 5830 5833 5836 5838 5841 5843 5845 5846 5848 5849 5849 5850 5850 5850 5850 5850 5849 5848
5654 5661 5665 5671 5676 5681 5687 5693 5699 5705 5716 5722 5728 5735 5741 5748 5755 5761 5767 5773 5778 5784 5789 5793 5798 5802 5807 5811 5815 5819 5822 5826 5829 5832 5834 5837 5839 5841 5843 5844 5845 5846 5847 5847 5847 5847 5846 5845 5845
5643 5649 5652 5657 5662 5668 5673 5680 5687 5696 5705 5711 5718 5725 5732 5740 5747 5753 5759 5765 5771 5776 5782 5787 5792 5797 5801 5806 5810 5814 5817 5821 5824 5827 5830 5833 5835 5837 5839 5840 5842 5842 5843 5843 5843 5843 5843 5842 5841
5632 5636 5640 5645 5650 5656 5661 5668 5674 5686 5693 5700 5707 5715 5723 5731 5738 5744 5751 5758 5764 5770 5775 5780 5785 5790 5795 5800 5804 5808 5812 5816 5819 5822 5825 5828 5831 5833 5835 5836 5838 5839 5839 5840 5840 5839 5839 5838 5837
5620 5624 5629 5634 5639 5644 5649 5655 5666 5677 5682 5689 5697 5706 5713 5721 5728 5736 5743 5750 5757 5762 5768 5773 5779 5784 5789 5794 5798 5802 5806 5810 5814 5817 5821 5823 5826 5828 5830 5832 5833 5834 5835 5835 5835 5835 5835 5834 5833
5609 5612 5617 5625 5628 5633 5637 5645 5659 5664 5670 5678 5687 5695 5703 5712 5720 5728 5735 5742 5749 5755 5760 5766 5772 5777 5782 5787 5792 5796 5801 5805 5808 5812 5815 5818 5821 5824 5826 5827 5829 5830 5831 5831 5831 5831 5830 5830 5829
5597 5600 5606 5614 5618 5622 5626 5636 5647 5652 5658 5667 5676 5685 5694 5703 5711 5720 5727 5734 5741 5747 5753 5759 5765 5770 5776 5781 5786 5790 5795 5799 5803 5806 5810 5813 5816 5819 5821 5823 5824 5825 5826 5827 5827 5826 5826 5825 5824
5589 5592 5596 5602 5608 5611 5616 5625 5635 5641 5648 5657 5666 5675 5684 5694 5704 5712 5719 5726 5733 5739 5746 5752 5758 5763 5768 5774 5779 5784 5789 5793 5797 5801 5804 5807 5810 5813 5815 5817 5819 5820 5821 5822 5822 5822 5821 5820 5819
5581 5583 5587 5593 5598 5601 5607 5614 5623 5630 5637 5647 5656 5665 5675 5685 5694 5701 5709 5717 5724 5731 5738 5745 5751 5757 5762 5768 5774 5778 5783 5787 5791 5795 5798 5802 5805 5808 5810 5812 5814 5815 5816 5816 5817 5816 5816 5815 5814
5572 5574 5578 5584 5589 5592 5597 5604 5613 5621 5629 5638 5646 5656 5666 5675 5684 5693 5701 5708 5716 5724 5731 5738 5744 5750 5756 5762 5767 5771 5775 5780 5784 5788 5792 5796 5799 5802 5804 5806 5808 5809 5810 5811 5811 5811 5811 5810 5809
5565 5567 5571 5575 5580 5584 5588 5594 5604 5613 5620 5628 5637 5647 5656 5666 5676 5684 5692 5700 5708 5716 5724 5731 5737 5743 5749 5754 5759 5764 5769 5773 5778 5782 5786 5790 5793 5796 5798 5800 5802 5803 5805 5805 5805 5805 5805 5804 5803
5559 5562 5564 5568 5571 5576 5581 5584 5596 5604 5611 5620 5630 5638 5647 5657 5667 5676 5684 5692 5700 5709 5716 5723 5729 5735 5741 5746 5752 5757 5763 5768 5773 5776 5779 5783 5786 5789 5792 5794 5796 5797 5798 5799 5799 5799 5799 5798 5797
5554 5556 5559 5561 5564 5568 5574 5576 5588 5595 5604 5614 5623 5631 5640 5649 5658 5667 5676 5684 5692 5700 5707 5714 5721 5727 5733 5738 5744 5750 5756 5760 5764 5768 5772 5776 5779 5782 5785 5787 5789 5791 5792 5793 5793 5793 5793 5792 5791
5549 5551 5553 5555 5558 5562 5569 5570 5579 5590 5600 5608 5616 5624 5631 5640 5649 5658 5667 5675 5683 5691 5698 5705 5712 5719 5725 5731 5737 5743 5748 5753 5757 5761 5765 5769 5772 5775 5778 5780 5782 5784 5785 5786 5786 5786 5786 5785 5784
5545 5546 5548 5549 5551 5556 5563 5564 5574 5586 5593 5600 5608 5615 5623 5630 5639 5648 5657 5666 5674 5682 5689 5697 5704 5710 5716 5723 5729 5735 5740 5745 5750 5754 5758 5762 5765 5769 5771 5773 5775 5777 5778 5778 5779 5779 5779 5778 5777
5541 5542 5544 5545 5547 5551 5555 5559 5570 5579 5585 5592 5599 5605 5613 5621 5629 5638 5647 5656 5665 5673 5680 5688 5695 5702 5708 5714 5721 5727 5732 5737 5742 5746 5750 5754 5758 5761 5763 5766 5767 5769 5770 5771 5772 5772 5772 5771 5770
5535 5537 5540 5541 5542 5544 5548 5555 5563 5570 5577 5583 5590 5597 5604 5612 5619 5628 5637 5645 5654 5663 5671 5679 5686 5693 5700 5706 5713 5718 5724 5729 5734 5738 5742 5746 5750 5753 5755 5758 5760 5761 5762 5763 5764 5764 5764 5763 5762
5531 5533 5535 5536 5537 5539 5544 5550 5557 5563 5569 5576 5582 5588 5595 5602 5609 5617 5626 5635 5644 5652 5661 5669 5677 5684 5691 5697 5703 5710 5715 5721 5725 5730 5734 5738 5741 5744 5747 5750 5752 5753 5754 5755 5756 5756 5756 5756 5754
5527 5528 5529 5531 5532 5534 5538 5547 5552 5557 5562 5568 5574 5580 5586 5593 5600 5608 5616 5625 5634 5642 5651 5659 5667 5674 5681 5688 5694 5701 5706 5712 5716 5721 5726 5729 5733 5736 5739 5741 5743 5745 5746 5747 5748 5748 5748 5747 5746
5520 5522 5523 5525 5528 5529 5532 5541 5545 5549 5553 5558 5564 5570 5577 5584 5591 5599 5607 5615 5623 5632 5641 5649 5657 5665 5672 5678 5685 5691 5697 5702 5707 5712 5716 5720 5724 5727 5730 5732 5735 5736 5738 5739 5740 5740 5740 5739 5738